Flag for U.S.A. Weather past 2 weeks in Concord, California, U.S.A.

Now
55 °F

Clear.


Feels Like: 54 °F
Forecast: 61 / 88 °F
Wind: 5 mph from South

Location: Buchanan Field

Current Time: Oct 1, 2014 at 6:03:30 AM

Latest Report: Oct 1, 2014 at 4:53 AM


Visibility: 10 mi

Pressure: 29.82 "Hg

Humidity: 90%

Dew point: 52 °F

Location of ConcordLocation

Historic Weather in Concord — Graph

°F

Concord temperature yesterday

Maximum temperature yesterday: 80 °F (at 3:53 PM)
Minimum temperature yesterday: 59 °F (at 6:53 AM)
Average temperature yesterday: 68 °F

Past Weeks' High & Low Weather Summary

 TemperatureHumidityPressure
High87 °F (Sep 16, 3:53 PM)96% (Sep 29, 6:53 AM)30.02 "Hg (Sep 29, 6:53 AM)
Low55 °F (Oct 1, 4:53 AM)23% (Sep 16, 3:53 PM)29.69 "Hg (Sep 17, 4:53 PM)
Average68 °F68%29.87 "Hg
* Reported Sep 16 4:53 AM — Oct 1 4:53 AM, Concord, Weather by CustomWeather, © 2014

Note: Actual official high and low records may vary slightly from our data, if they occured in-between our weather recording intervals... More about our weather records

Advertising

Concord weather history for previous 24 hours

 ConditionsComfort  
Time TempWeatherWind HumidityBarometerVisibility
4:53 AM
Oct 1
55 °FClear.5 mph90%29.82 "Hg10 mi
3:53 AM57 °FClear.No wind87%29.81 "Hg10 mi
2:53 AM57 °FClear.5 mph87%29.81 "Hg10 mi
1:53 AM59 °FClear.3 mph84%29.81 "Hg10 mi
12:53 AM60 °FClear.No wind80%29.81 "Hg10 mi
11:53 PM
Sep 30
64 °FClear.3 mph73%29.81 "Hg10 mi
10:53 PM66 °FClear.5 mph68%29.80 "Hg10 mi
9:53 PM67 °FClear.No wind61%29.80 "Hg10 mi
8:53 PM71 °FClear.3 mph53%29.80 "Hg10 mi
7:53 PM73 °FClear.10 mph51%29.80 "Hg10 mi
6:53 PM76 °FSunny.10 mph48%29.79 "Hg10 mi
5:53 PM79 °FSunny.8 mph44%29.78 "Hg10 mi
4:53 PM80 °FSunny.6 mph41%29.79 "Hg10 mi
3:53 PM80 °FPassing clouds.8 mph41%29.81 "Hg10 mi
2:53 PM79 °FPassing clouds.8 mph42%29.83 "Hg10 mi
1:53 PM76 °FSunny.No wind45%29.86 "Hg10 mi
12:53 PM74 °FPassing clouds.5 mph52%29.88 "Hg10 mi
11:53 AM71 °FSunny.6 mph59%29.89 "Hg10 mi
10:53 AM69 °FPassing clouds.9 mph63%29.91 "Hg10 mi
9:53 AM66 °FSunny.10 mph70%29.92 "Hg10 mi
8:53 AM64 °FSunny.6 mph78%29.92 "Hg10 mi
7:53 AM60 °FClear.8 mph86%29.90 "Hg10 mi
6:53 AM59 °FClear.9 mph87%29.90 "Hg10 mi
Weather by CustomWeather, © 2014

See weather overviewHow to use our weather pages